Date,TemperatureHighF,TemperatureAvgF,TemperatureLowF,DewpointHighF,DewpointAvgF,DewpointLowF,HumidityHigh,HumidityAvg,HumidityLow,PressureMaxIn,PressureMinIn,WindSpeedMaxMPH,WindSpeedAvgMPH,GustSpeedMaxMPH,PrecipitationSumIn
2013-1-1,77.4,63.8,51.8,62.0,56.4,51.8,100,80,49,30.24,30.05,11,2,14,0.00
2013-1-2,79.9,67.7,56.1,66.6,61.4,56.0,100,82,56,30.08,29.98,12,2,12,0.00
2013-1-3,74.1,65.3,57.7,67.7,63.1,55.9,100,93,72,30.20,30.04,12,2,14,0.18
2013-1-4,58.9,56.7,53.2,58.9,56.7,53.2,100,100,100,30.29,30.16,11,4,14,0.46
2013-1-5,75.4,62.0,51.8,61.5,56.8,51.8,100,84,59,30.31,30.19,8,3,11,0.00
2013-1-6,79.9,68.4,60.3,67.2,63.1,58.6,100,85,61,30.22,30.07,11,2,11,0.01
2013-1-7,69.8,62.0,54.9,63.0,58.4,52.5,100,89,61,30.23,30.13,12,4,14,0.18
2013-1-8,81.9,70.6,61.9,73.3,66.4,61.9,100,88,58,30.24,30.13,6,1,8,0.01
2013-1-9,83.1,73.0,67.1,73.1,69.3,67.1,100,89,65,30.32,30.21,9,1,12,0.00
2013-1-10,83.7,72.8,66.3,72.2,66.0,59.5,100,82,46,30.32,30.23,13,2,15,0.00
2013-1-11,83.2,71.7,62.5,71.5,64.8,60.6,100,81,49,30.28,30.17,13,2,14,0.00
2013-1-12,85.5,71.8,60.9,70.6,63.6,57.7,100,79,42,30.21,30.10,10,2,13,0.00
2013-1-13,82.4,71.0,60.4,68.7,63.3,59.0,100,79,48,30.18,30.08,13,2,13,0.00
2013-1-14,80.9,71.6,61.7,68.1,63.8,60.4,100,79,50,30.20,30.13,9,2,10,0.00
2013-1-15,84.1,72.5,63.7,69.6,64.5,58.9,100,79,45,30.17,30.07,9,2,13,0.00
2013-1-16,83.5,70.8,59.7,68.1,61.2,55.5,100,76,40,30.11,30.01,9,2,12,0.00
2013-1-17,79.4,63.9,52.6,69.6,58.6,44.1,100,84,60,30.12,29.97,20,6,24,0.00
2013-1-18,66.1,53.7,40.2,60.7,46.4,34.2,98,77,64,30.29,30.12,16,6,22,0.01
2013-1-19,74.2,63.7,53.8,59.5,56.4,50.4,93,78,58,30.29,30.15,14,4,17,0.00
2013-1-20,74.0,64.1,59.0,62.7,58.2,52.3,98,82,62,30.19,30.06,10,3,14,0.00
2013-1-21,76.2,66.1,60.6,58.9,56.3,54.6,86,71,53,30.11,30.01,8,2,9,0.00
2013-1-22,63.8,58.0,49.1,55.5,43.4,35.0,83,59,37,30.29,30.08,13,4,17,0.00
2013-1-23,69.4,55.3,43.2,43.2,37.0,30.0,82,54,24,30.36,30.27,10,2,10,0.00
2013-1-24,73.6,58.5,43.8,52.4,46.0,41.4,94,67,36,30.33,30.22,12,2,13,0.00
2013-1-25,77.3,62.4,50.3,59.9,50.5,45.3,100,70,36,30.31,30.17,8,1,11,0.00
2013-1-26,76.3,61.2,46.0,57.9,51.5,45.3,100,73,44,30.27,30.16,9,1,11,0.00
2013-1-27,80.5,65.3,51.7,64.1,57.5,51.5,100,79,43,30.32,30.24,9,1,10,0.00
2013-1-28,79.9,70.4,62.5,65.1,62.7,60.5,96,78,55,30.34,30.25,12,2,15,0.00
2013-1-29,84.2,72.2,63.0,69.9,64.8,59.3,100,80,45,30.27,30.11,11,3,14,0.00
2013-1-30,84.5,74.1,65.0,67.5,63.9,58.9,99,73,43,30.13,29.90,23,6,24,0.00
2013-1-31,71.8,58.2,47.9,66.0,42.6,27.5,99,61,28,30.24,29.90,17,4,24,0.16
2013-2-1,69.4,53.9,40.9,38.3,30.9,23.0,70,46,18,30.36,30.23,13,3,17,0.00
2013-2-2,72.4,56.6,41.1,45.2,39.3,35.2,83,56,28,30.31,30.14,9,2,11,0.00
2013-2-3,70.5,57.0,41.1,49.7,42.5,35.6,89,61,35,30.20,30.06,12,3,14,0.00
2013-2-4,72.1,56.0,41.9,48.3,39.2,30.4,99,60,23,30.15,30.05,12,1,12,0.00
2013-2-5,77.7,59.9,41.1,51.5,45.1,37.9,89,61,35,30.11,30.00,8,1,10,0.00
2013-2-6,79.5,65.9,57.9,62.8,55.4,51.1,87,70,45,30.13,30.04,5,0,9,0.00
2013-2-7,81.4,72.8,64.4,63.5,60.6,55.5,88,67,48,30.10,29.88,17,5,19,0.00
2013-2-8,80.4,69.9,59.5,65.5,58.6,52.0,92,70,40,30.10,29.88,15,5,18,0.00
2013-2-9,76.6,62.6,52.9,57.7,54.2,51.6,99,77,43,30.23,30.08,10,3,16,0.01
2013-2-10,80.5,67.6,57.6,58.7,55.7,53.1,87,68,41,30.28,30.18,13,3,18,0.00
2013-2-11,82.8,71.1,58.2,63.8,59.2,56.2,99,69,42,30.23,30.09,13,3,18,0.00
2013-2-12,85.1,73.9,61.8,68.2,62.3,58.3,100,71,41,30.11,29.94,12,4,16,0.00
2013-2-13,85.9,72.9,62.8,69.6,66.2,60.4,99,82,45,29.98,29.83,22,7,30,0.42
2013-2-14,66.6,62.0,55.7,63.5,60.0,55.7,100,93,75,30.06,29.92,10,2,13,0.32
2013-2-15,69.0,58.4,51.7,57.6,53.8,50.5,100,87,54,30.09,29.96,8,3,11,0.04
2013-2-16,68.0,56.8,48.6,53.9,43.5,26.3,98,66,29,30.14,29.91,19,5,26,0.00
2013-2-17,56.0,45.1,34.9,28.1,19.4,10.3,66,38,16,30.36,30.14,15,4,19,0.00
2013-2-18,70.7,51.6,33.7,46.3,35.6,25.0,76,56,34,30.38,30.22,8,2,19,0.00
2013-2-19,78.7,63.6,47.1,57.1,50.4,44.5,98,66,37,30.23,30.07,16,3,18,0.00
2013-2-20,77.9,65.3,59.5,60.7,55.2,51.8,96,72,48,30.15,30.02,11,2,12,0.00
2013-2-21,84.2,70.1,57.5,66.3,57.5,50.5,87,66,40,30.13,30.01,9,2,12,0.00
2013-2-22,87.4,74.9,64.1,70.6,65.0,55.9,100,76,36,30.10,30.00,13,3,18,0.00
2013-2-23,87.4,76.6,69.5,70.7,66.0,58.0,97,73,39,30.02,29.88,15,6,21,0.00
2013-2-24,76.3,70.3,65.4,73.0,68.9,64.6,100,95,81,29.98,29.88,10,3,11,0.31
2013-2-25,85.8,72.8,63.6,73.3,65.7,56.7,100,82,38,29.95,29.78,15,2,24,0.03
2013-2-26,76.7,71.3,64.9,72.8,67.8,59.8,99,89,71,29.88,29.74,14,6,19,0.37
2013-2-27,76.0,65.7,57.0,63.3,55.1,49.0,97,71,44,29.98,29.87,15,4,15,0.00
2013-2-28,73.9,61.5,49.5,53.8,48.4,39.3,96,65,30,30.01,29.88,17,4,27,0.00
2013-3-1,65.0,55.9,49.1,48.2,39.7,29.6,83,57,30,30.01,29.91,12,4,20,0.00
2013-3-2,59.2,51.2,43.3,37.2,33.1,25.4,70,51,28,30.04,29.95,24,6,30,0.00
2013-3-3,52.8,44.4,36.9,33.1,31.1,28.7,77,60,44,30.16,30.00,17,5,21,0.00
2013-3-4,68.7,50.2,33.1,37.5,29.6,22.2,90,52,19,30.24,30.12,10,1,14,0.00
2013-3-5,77.2,60.2,42.3,57.1,42.4,35.7,95,58,22,30.19,30.02,16,4,20,0.00
2013-3-6,68.0,59.3,48.3,62.7,40.1,26.0,96,54,23,30.15,29.92,24,8,27,0.01
2013-3-7,68.0,53.4,39.9,46.2,37.6,31.1,85,57,35,30.22,30.13,10,3,12,0.00
2013-3-8,76.4,58.2,42.5,48.6,41.5,27.1,97,62,17,30.23,30.12,12,2,13,0.00
2013-3-9,77.4,61.0,46.0,54.1,48.3,44.4,96,67,32,30.24,30.14,9,2,11,0.00
2013-3-10,81.7,70.6,56.7,56.7,53.5,49.5,96,57,34,30.20,30.09,17,3,19,0.00
2013-3-11,79.7,68.2,56.1,60.6,56.0,53.1,95,67,42,30.14,29.92,15,4,18,0.00
2013-3-12,72.0,66.2,58.0,68.9,62.8,57.2,100,89,72,30.04,29.87,13,6,18,0.19
2013-3-13,75.2,61.7,49.0,57.8,39.9,22.9,98,54,15,30.18,30.03,15,5,20,0.00
2013-3-14,68.1,55.6,45.8,42.8,33.9,22.2,75,48,18,30.27,30.16,14,4,18,0.00
2013-3-15,73.9,56.7,40.1,47.1,37.2,28.7,97,56,22,30.29,30.14,10,2,12,0.00
2013-3-16,80.4,63.1,46.0,49.4,41.6,35.2,93,52,20,30.20,30.04,12,2,14,0.00
2013-3-17,77.3,65.1,49.1,58.1,49.9,41.8,93,61,38,30.16,30.01,10,2,14,0.00
2013-3-18,79.4,71.9,64.1,65.9,61.1,57.2,87,70,52,30.08,29.92,14,5,17,0.01
2013-3-19,88.1,74.1,64.0,65.3,60.0,51.2,98,66,30,30.04,29.90,10,2,12,0.00
2013-3-20,76.2,68.3,59.3,68.8,62.1,56.8,98,81,64,29.99,29.80,15,3,15,0.41
2013-3-21,70.5,59.6,49.1,59.0,42.4,24.0,100,61,19,29.98,29.87,16,4,19,0.01
2013-3-22,79.2,61.5,45.9,63.4,49.7,41.6,98,70,33,30.03,29.90,9,2,12,0.18
2013-3-23,85.4,72.9,62.8,73.7,66.5,62.6,100,82,54,30.00,29.78,17,4,17,0.28
2013-3-24,82.1,72.6,64.6,74.3,68.9,62.4,99,89,63,29.87,29.63,25,7,52,0.89
2013-3-25,71.7,65.3,55.3,67.0,49.9,24.6,97,64,17,30.05,29.72,16,6,18,0.00
2013-3-26,60.0,52.9,45.9,41.6,29.1,16.5,63,41,19,30.24,30.03,17,7,24,0.00
2013-3-27,63.3,50.9,40.5,38.4,31.2,24.7,70,50,24,30.31,30.20,12,4,14,0.00
2013-3-28,72.6,56.1,39.0,43.7,35.5,25.1,92,54,18,30.30,30.17,11,2,13,0.00
2013-3-29,76.3,60.6,44.7,47.1,38.0,27.4,90,51,17,30.33,30.20,8,1,12,0.00
2013-3-30,80.0,64.5,47.6,51.9,45.2,41.5,90,54,28,30.27,30.11,17,2,17,0.00
2013-3-31,82.2,71.4,62.3,54.9,50.6,45.0,71,50,28,30.18,30.00,17,4,18,0.00
2013-4-1,84.8,73.1,63.1,65.1,59.2,54.0,88,64,38,30.04,29.93,21,5,24,0.01
2013-4-2,86.4,72.1,61.8,64.4,55.7,43.8,100,63,25,30.10,30.01,8,2,10,0.00
2013-4-3,85.9,72.5,62.6,69.0,61.6,55.3,99,72,39,30.11,29.97,14,3,18,0.58
2013-4-4,74.5,70.3,67.3,71.0,67.5,63.0,100,91,74,30.03,29.87,14,4,22,0.18
2013-4-5,77.4,68.3,57.7,68.1,62.5,55.6,98,83,48,30.01,29.82,14,5,20,0.08
2013-4-6,78.4,64.8,53.7,59.0,55.4,52.4,98,75,44,30.16,30.00,15,5,16,0.00
2013-4-7,82.4,68.9,57.2,64.8,58.0,53.3,100,72,39,30.17,30.07,9,2,12,0.00
2013-4-8,85.8,72.0,60.1,65.2,59.2,55.0,100,68,37,30.16,30.07,11,2,16,0.00
2013-4-9,88.1,73.7,62.6,69.2,60.9,51.9,100,69,36,30.18,30.09,13,2,15,0.00
2013-4-10,88.7,74.0,61.1,71.2,63.2,57.1,100,73,36,30.15,30.00,11,2,13,0.00
2013-4-11,89.7,79.5,71.7,72.4,69.1,63.7,97,73,44,30.02,29.83,16,6,22,0.00
2013-4-12,85.3,78.7,74.0,73.6,70.2,65.8,94,76,54,29.92,29.83,17,6,24,0.01
2013-4-13,89.1,77.0,69.7,70.6,64.7,55.0,96,69,35,30.01,29.89,10,2,11,0.00
2013-4-14,89.0,75.3,66.3,75.8,66.7,59.9,100,76,47,30.01,29.82,10,2,17,1.22
2013-4-15,90.4,76.1,65.6,66.1,62.3,57.6,96,66,34,30.10,29.91,8,2,10,0.00
2013-4-16,89.6,77.1,68.4,72.4,66.8,61.0,99,73,46,30.17,30.06,10,2,14,0.00
2013-4-17,85.4,73.8,64.7,71.5,65.6,60.8,100,78,45,30.17,30.07,9,2,11,0.00
2013-4-18,88.8,77.6,66.3,70.4,66.1,60.5,100,72,40,30.08,29.97,13,3,16,0.00
2013-4-19,91.3,79.4,73.3,76.0,70.7,63.6,96,77,41,30.03,29.92,19,5,23,0.45
2013-4-20,75.8,67.4,59.3,72.4,63.1,56.2,96,86,70,30.17,29.97,15,5,18,0.00
2013-4-21,79.0,68.0,59.2,74.0,66.1,56.1,100,94,70,30.16,30.04,10,3,15,0.61
2013-4-22,78.9,69.1,63.9,70.3,67.2,63.2,100,94,65,30.10,30.01,12,4,18,0.05
2013-4-23,81.7,70.3,61.3,67.0,60.8,53.9,100,76,40,30.14,30.03,11,4,16,0.00
2013-4-24,88.1,71.9,56.8,66.4,59.6,53.7,100,70,32,30.16,30.07,9,2,11,0.01
2013-4-25,88.5,75.3,62.2,66.7,61.0,55.0,99,65,34,30.23,30.11,9,2,11,0.00
2013-4-26,89.1,76.0,63.9,67.4,62.9,57.8,96,67,36,30.25,30.16,9,2,14,0.00
2013-4-27,87.3,75.4,66.4,70.5,64.3,58.2,100,72,38,30.25,30.12,11,2,12,0.00
2013-4-28,84.9,74.5,64.9,68.9,63.9,59.4,99,72,43,30.15,30.00,11,3,15,0.00
2013-4-29,86.4,75.9,67.1,71.6,63.7,56.7,100,69,41,30.05,29.91,11,3,14,1.01
2013-4-30,91.1,74.3,66.2,70.7,67.1,57.9,100,83,36,30.04,29.92,11,1,36,0.98
2013-5-1,78.7,71.4,67.9,74.5,70.7,66.5,100,98,70,30.03,29.95,10,1,15,0.46
2013-5-2,75.3,69.7,65.6,73.5,69.5,65.6,100,99,91,29.98,29.83,7,1,13,3.09
2013-5-3,80.4,71.8,66.9,72.4,68.4,66.3,100,90,64,29.85,29.70,20,4,24,0.06
2013-5-4,84.6,74.1,68.2,72.0,68.1,63.8,100,83,53,29.80,29.67,12,3,13,0.10
2013-5-5,79.7,70.2,60.7,68.8,52.9,42.3,98,59,28,29.95,29.76,19,5,21,0.00
2013-5-6,78.0,68.9,61.7,61.1,54.4,47.9,88,62,39,30.02,29.90,14,4,18,0.00
2013-5-7,79.1,67.9,55.1,61.1,54.8,50.5,97,66,41,30.07,29.97,17,4,18,0.00
2013-5-8,83.6,71.5,59.5,63.1,58.0,52.9,99,67,38,30.15,30.03,11,3,13,0.00
2013-5-9,86.5,73.7,59.8,66.6,59.3,49.6,100,66,28,30.16,30.08,11,2,13,0.00
2013-5-10,91.0,78.0,65.7,72.3,66.4,59.9,100,71,36,30.15,30.00,10,2,12,0.01
2013-5-11,90.6,78.2,69.0,71.9,67.6,62.2,98,72,40,30.06,29.98,19,4,19,0.00
2013-5-12,90.6,78.8,68.7,72.5,64.8,60.7,93,65,38,30.05,29.95,14,4,19,0.00
2013-5-13,84.4,74.5,67.3,68.2,57.8,44.0,94,60,30,30.15,30.00,18,4,18,0.00
2013-5-14,85.5,71.3,56.2,56.2,50.7,40.0,90,54,21,30.22,30.13,9,2,11,0.00
2013-5-15,88.4,74.0,59.8,63.4,55.9,49.2,94,58,28,30.23,30.10,10,2,16,0.00
2013-5-16,89.1,76.2,64.2,64.9,60.2,53.8,96,61,31,30.15,30.02,10,2,15,0.00
2013-5-17,90.8,77.5,65.5,67.8,62.8,56.7,92,63,33,30.12,30.04,9,2,13,0.00
2013-5-18,93.5,79.6,68.5,73.0,66.7,57.2,98,69,31,30.13,30.01,10,2,14,0.00
2013-5-19,89.9,76.9,70.5,74.9,71.5,65.9,100,85,48,30.10,30.01,11,2,17,0.92
2013-5-20,92.3,76.3,68.5,75.3,70.5,62.9,100,86,39,30.10,29.99,14,1,17,2.36
2013-5-21,82.9,73.5,69.0,74.5,71.4,68.9,100,94,67,30.05,29.96,8,1,12,0.13
2013-5-22,89.2,76.3,69.0,75.0,70.5,64.0,100,84,46,29.99,29.92,10,1,16,0.02
2013-5-23,92.7,77.8,69.7,74.6,70.1,63.4,100,81,40,30.01,29.92,13,2,22,0.20
2013-5-24,95.2,81.3,70.7,75.7,65.8,53.3,100,66,25,30.10,29.97,13,2,15,0.00
2013-5-25,88.0,77.7,69.1,70.9,62.7,55.8,97,63,39,30.21,30.08,10,2,14,0.00
2013-5-26,87.9,74.2,61.1,63.3,57.9,51.4,94,60,30,30.23,30.15,8,1,14,0.00
2013-5-27,88.9,76.4,65.2,67.3,61.3,54.8,96,63,33,30.20,30.11,9,2,13,0.00
2013-5-28,91.4,78.7,69.1,71.1,67.2,64.3,92,70,42,30.17,30.07,14,2,16,0.00
2013-5-29,86.9,77.7,71.8,75.7,72.0,66.8,97,84,52,30.15,30.07,14,3,22,0.10
2013-5-30,87.8,78.1,70.5,76.2,71.3,65.3,100,81,50,30.14,30.06,18,3,20,0.15
2013-5-31,88.7,78.9,71.5,74.4,69.8,65.2,98,75,50,30.13,30.04,16,2,18,0.00
2013-6-1,88.8,79.7,72.7,75.6,72.2,69.6,97,80,56,30.09,29.98,11,2,13,0.01
2013-6-2,92.3,80.6,73.6,77.5,73.3,66.9,100,82,44,30.03,29.88,10,2,13,0.05
2013-6-3,90.1,79.5,73.6,77.8,73.7,67.4,100,85,50,30.02,29.89,16,2,17,0.15
2013-6-4,86.7,77.1,71.1,75.4,72.6,67.7,100,87,54,30.05,29.94,12,2,25,0.49
2013-6-5,84.9,75.4,71.7,77.3,73.3,69.1,100,94,64,30.04,29.92,14,1,17,0.04
2013-6-6,78.8,75.1,71.9,78.8,74.3,70.0,100,98,79,29.93,29.67,19,5,33,0.10
2013-6-7,89.2,80.6,73.5,75.4,71.9,67.8,98,77,51,30.06,29.61,13,5,17,12.29
2013-6-8,90.1,77.7,69.6,75.2,72.5,68.7,100,86,54,30.11,29.96,23,2,33,14.76
2013-6-9,91.8,79.7,69.9,79.8,72.7,67.2,100,82,50,30.12,30.03,12,3,16,0.00
2013-6-10,94.9,81.0,74.2,77.2,73.2,63.3,99,81,40,30.11,30.02,10,3,20,0.10
2013-6-11,92.2,78.4,72.5,79.4,75.2,69.8,100,92,50,30.10,30.02,9,1,16,0.82
2013-6-12,96.1,82.3,70.8,78.5,70.8,62.9,100,73,36,30.09,30.00,14,2,14,0.01
2013-6-13,94.2,83.7,74.5,76.4,71.3,66.0,95,69,41,30.04,29.90,13,4,16,0.00
2013-6-14,93.2,83.6,75.2,75.2,70.4,63.0,95,68,39,29.95,29.84,13,5,20,0.00
2013-6-15,91.9,81.0,76.4,79.6,74.6,71.2,100,82,55,30.09,29.92,9,2,13,0.55
2013-6-16,91.0,82.2,77.9,77.7,74.2,71.2,91,78,55,30.10,30.03,9,3,14,0.07
2013-6-17,91.3,81.2,74.8,80.7,76.5,71.0,100,87,54,30.10,29.97,14,2,15,2.39
2013-6-18,94.2,80.8,71.7,81.3,74.6,67.3,100,85,44,30.08,29.95,17,2,22,0.97
2013-6-19,92.6,82.7,74.7,78.3,73.7,66.9,100,77,45,30.05,29.95,10,3,16,0.02
2013-6-20,95.0,80.3,72.8,75.4,72.9,65.3,100,81,39,30.11,30.01,8,2,12,1.21
2013-6-21,91.2,76.8,71.6,77.9,72.8,68.0,100,90,48,30.13,30.05,13,1,24,1.77
2013-6-22,93.9,79.5,71.4,80.2,72.3,63.9,100,82,38,30.13,30.06,12,2,16,0.01
2013-6-23,90.7,79.9,73.0,79.0,74.0,68.4,100,84,51,30.17,30.08,9,2,12,0.37
2013-6-24,93.1,81.1,74.4,78.6,74.1,69.0,100,81,47,30.20,30.08,8,2,10,0.30
2013-6-25,92.1,82.2,73.7,77.1,72.0,65.2,100,74,44,30.17,30.04,10,2,15,0.00
2013-6-26,94.8,81.5,75.8,77.7,72.7,67.0,97,77,42,30.09,30.01,13,3,19,0.00
2013-6-27,90.4,81.0,72.1,74.9,71.2,66.5,99,74,50,30.05,29.93,9,2,10,0.00
2013-6-28,92.3,79.8,72.8,76.1,73.7,68.3,100,84,46,29.98,29.86,14,3,26,0.56
2013-6-29,90.0,80.9,74.4,78.4,73.4,65.1,100,80,50,29.89,29.79,22,5,23,0.01
2013-6-30,89.6,78.0,73.7,77.4,74.6,68.9,100,90,55,29.90,29.82,26,4,27,0.45
2013-7-1,84.8,76.2,72.1,76.4,73.7,68.8,100,93,69,30.04,29.88,28,4,30,0.66
2013-7-2,86.6,77.2,72.7,79.7,74.7,70.3,100,93,71,30.11,29.99,18,2,18,0.13
2013-7-3,90.1,77.6,72.6,79.9,75.6,72.1,100,94,59,30.15,30.07,17,2,21,0.05
2013-7-4,91.3,78.1,71.0,80.7,73.6,69.2,100,88,52,30.17,30.09,22,2,23,0.18
2013-7-5,91.0,80.5,72.4,80.4,74.0,68.4,100,83,51,30.17,30.07,21,3,21,0.03
2013-7-6,92.3,82.4,74.0,77.4,73.3,66.6,100,76,47,30.14,30.05,18,4,20,0.00
2013-7-7,93.8,84.0,74.8,77.9,72.2,65.9,100,70,43,30.15,30.05,17,3,18,0.00
2013-7-8,95.2,83.4,75.4,78.5,73.0,67.6,100,74,44,30.18,30.08,13,2,14,0.00
2013-7-9,93.1,82.8,73.7,78.0,70.8,62.6,100,71,40,30.18,30.08,13,1,14,0.00
2013-7-10,93.1,81.8,73.7,76.9,72.1,66.6,100,75,45,30.10,29.98,11,2,11,0.03
2013-7-11,94.0,82.0,75.1,75.6,72.1,64.2,96,74,40,30.05,29.92,20,3,29,0.01
2013-7-12,88.1,80.4,74.7,76.5,73.4,67.0,98,81,56,29.97,29.90,14,2,14,0.00
2013-7-13,93.1,79.1,73.2,76.1,73.3,66.4,99,85,45,30.02,29.92,24,2,26,0.16
2013-7-14,91.6,78.4,72.4,76.9,73.9,69.7,100,87,52,30.11,29.99,17,3,21,0.02
2013-7-15,87.4,78.3,71.0,76.3,72.4,68.6,100,84,57,30.14,30.03,14,2,15,0.00
2013-7-16,90.9,78.2,73.4,79.6,74.5,68.7,100,90,52,30.18,30.11,21,2,22,0.97
2013-7-17,91.5,79.0,73.7,79.3,75.0,67.6,100,90,50,30.18,30.09,25,1,27,0.24
2013-7-18,88.0,78.9,72.9,78.8,73.2,66.7,100,85,55,30.14,30.06,24,2,25,0.00
2013-7-19,90.6,78.3,73.3,75.5,73.5,69.7,100,87,54,30.15,30.04,22,2,23,1.10
2013-7-20,92.3,78.8,72.4,81.3,74.3,69.8,100,88,51,30.12,30.02,20,2,23,0.03
2013-7-21,95.1,80.1,73.2,79.2,74.0,68.4,100,84,45,30.14,30.02,19,2,19,0.00
2013-7-22,92.8,79.2,73.9,78.7,74.9,68.2,100,88,47,30.13,30.07,26,3,26,1.21
2013-7-23,84.3,77.4,73.2,79.6,75.0,71.3,100,93,71,30.10,29.96,28,3,28,0.10
2013-7-24,87.5,80.6,75.2,79.1,75.4,68.7,100,85,62,30.01,29.88,18,4,20,0.02
2013-7-25,86.9,80.2,73.5,78.2,75.6,70.3,100,87,65,29.99,29.88,23,4,26,0.11
2013-7-26,94.1,82.5,74.7,79.0,75.0,67.5,100,81,46,30.02,29.95,14,2,14,0.00
2013-7-27,95.3,82.4,74.7,78.6,74.3,67.7,100,79,44,30.01,29.89,13,2,14,0.01
2013-7-28,94.3,80.6,74.1,78.8,72.9,64.4,100,80,39,30.08,29.94,17,2,20,0.00
2013-7-29,94.0,81.6,73.4,79.6,74.6,68.3,100,83,46,30.17,30.05,9,1,15,0.27
2013-7-30,96.8,83.6,74.6,79.9,73.9,64.4,100,77,39,30.18,30.08,12,2,15,0.00
2013-7-31,95.2,82.6,75.9,79.5,75.0,68.1,100,80,44,30.15,30.01,17,2,25,0.23
2013-8-1,94.0,79.7,74.1,79.9,74.5,65.6,100,87,42,30.08,29.96,26,2,28,0.24
2013-8-2,95.1,82.7,74.2,78.4,72.8,64.5,100,76,39,30.05,29.95,10,1,13,0.00
2013-8-3,92.4,81.4,74.3,77.8,74.3,68.9,100,81,48,30.10,30.00,14,3,20,0.65
2013-8-4,92.0,80.7,75.1,80.4,76.9,70.0,100,89,56,30.09,29.99,23,3,23,0.30
2013-8-5,90.0,79.2,73.6,79.7,77.4,71.7,100,95,57,30.03,29.90,26,2,26,1.00
2013-8-6,87.9,76.9,74.4,79.1,76.0,74.0,100,97,70,29.99,29.90,6,0,6,0.00
2013-8-7,93.0,83.7,77.3,80.6,76.0,70.8,100,80,51,29.99,29.92,10,2,14,0.00
2013-8-8,94.7,83.4,76.2,79.4,75.2,69.0,100,79,45,30.06,29.96,17,3,26,0.07
2013-8-9,95.4,83.3,75.9,79.4,73.8,67.1,100,76,43,30.08,29.99,16,2,20,0.00
2013-8-10,96.8,84.3,74.0,77.2,72.3,67.6,98,70,42,30.14,30.04,13,3,14,0.00
2013-8-11,97.8,85.2,76.3,80.0,73.1,63.8,100,71,34,30.17,30.06,12,2,13,0.00
2013-8-12,98.1,85.1,75.4,77.7,72.5,65.7,99,70,38,30.14,30.00,12,2,12,0.00
2013-8-13,99.1,86.1,75.9,76.9,71.3,59.0,97,66,29,30.06,29.92,14,2,14,0.00
2013-8-14,93.7,81.5,75.4,79.0,74.4,67.8,100,81,48,30.03,29.91,22,2,24,0.36
2013-8-15,95.3,82.7,74.1,79.6,73.5,65.7,100,78,40,30.05,29.92,18,2,18,0.00
2013-8-16,93.8,82.9,77.1,78.0,74.2,64.0,94,77,40,30.08,29.97,24,2,27,0.03
2013-8-17,96.2,81.6,75.2,82.4,76.7,69.9,100,88,45,30.10,29.99,23,2,23,1.22
2013-8-18,92.0,81.7,74.8,81.0,76.2,70.5,100,86,51,30.11,30.02,19,2,19,0.39
2013-8-19,91.1,81.2,74.4,81.7,75.5,70.1,100,84,56,30.11,29.98,18,1,18,0.09
2013-8-20,97.0,84.6,76.2,79.5,73.8,65.9,100,74,39,30.11,30.00,17,2,17,0.00
2013-8-21,94.8,81.2,74.4,79.6,75.9,70.3,100,86,49,30.13,30.05,16,2,16,0.60
2013-8-22,90.2,80.2,76.9,81.3,76.8,72.1,100,90,60,30.11,30.00,14,1,14,0.01
2013-8-23,92.9,79.2,72.7,81.2,76.2,70.2,100,92,50,30.04,29.97,19,1,19,0.61
2013-8-24,93.4,78.4,73.5,81.8,75.8,69.5,100,93,49,30.13,30.01,27,1,28,0.82
2013-8-25,88.3,78.7,73.2,80.5,75.1,71.8,100,90,65,30.17,30.09,18,1,18,0.01
2013-8-26,88.8,79.6,73.0,79.8,74.8,69.8,100,86,58,30.15,30.02,19,3,19,0.12
2013-8-27,91.8,80.9,73.1,77.2,70.3,63.6,100,74,42,30.08,29.99,14,2,15,0.00
2013-8-28,92.3,80.8,70.7,75.9,68.1,61.6,100,69,38,30.07,29.98,12,1,12,0.00
2013-8-29,93.8,82.4,72.9,75.8,70.0,61.8,100,70,36,30.04,29.92,12,1,12,0.00
2013-8-30,96.0,82.6,74.9,76.8,72.8,66.1,97,75,40,30.00,29.88,18,2,18,0.04
2013-8-31,92.7,81.2,73.8,77.6,73.4,66.2,100,80,45,29.98,29.89,19,3,20,0.28
2013-9-1,94.8,80.6,72.8,76.5,72.4,63.7,100,81,38,30.01,29.89,31,2,31,0.13
2013-9-2,93.3,80.8,72.9,76.9,73.2,67.7,100,80,46,30.03,29.93,16,2,16,0.01
2013-9-3,94.9,83.1,73.2,77.9,72.2,64.3,100,73,40,30.03,29.92,14,2,15,0.00
2013-9-4,95.4,82.6,75.8,78.7,72.3,65.2,98,74,41,30.10,29.99,22,2,26,0.00
2013-9-5,95.8,82.2,73.7,77.3,73.2,67.5,96,76,43,30.12,30.01,14,1,14,0.00
2013-9-6,93.3,78.9,72.5,80.6,75.1,66.9,100,90,50,30.06,29.98,25,1,25,0.41
2013-9-7,93.1,78.0,71.0,79.8,73.3,65.7,100,88,45,30.03,29.94,15,2,16,0.18
2013-9-8,92.7,80.2,71.7,77.5,71.9,65.2,100,79,44,29.99,29.89,13,3,13,0.01
2013-9-9,93.1,81.4,71.7,76.0,70.3,61.8,100,73,36,30.05,29.95,8,2,9,0.00
2013-9-10,92.1,82.0,74.4,75.7,70.8,61.0,98,72,38,30.11,30.01,15,2,15,0.00
2013-9-11,93.7,82.4,74.6,77.3,71.3,61.1,100,73,39,30.10,30.00,16,2,16,0.00
2013-9-12,93.3,80.6,73.3,78.8,73.1,67.9,100,80,47,30.04,29.90,14,1,18,0.00
2013-9-13,96.2,82.3,72.2,77.5,70.9,60.0,100,73,33,29.92,29.80,9,2,9,0.00
2013-9-14,83.4,80.8,78.5,76.3,75.0,72.5,89,83,73,29.99,29.86,8,1,9,0.01
2013-9-15,95.5,82.5,76.8,79.6,74.3,67.5,100,78,43,30.09,29.98,16,2,17,0.00
2013-9-16,95.8,81.7,72.9,77.8,72.4,65.7,100,76,41,30.09,29.99,18,1,18,0.00
2013-9-17,92.3,81.0,73.2,78.1,72.2,65.7,100,77,45,30.08,29.97,14,2,14,0.00
2013-9-18,89.9,80.2,74.0,76.4,72.3,67.5,98,78,53,30.05,29.98,8,2,12,0.01
2013-9-19,92.9,80.0,73.4,77.2,71.4,64.9,100,78,41,30.07,29.99,7,1,12,0.03
2013-9-20,91.8,79.4,70.2,72.4,68.0,62.8,98,71,40,30.05,29.92,12,1,12,0.00
2013-9-21,92.4,80.1,69.7,73.2,68.6,60.0,100,71,41,29.97,29.77,11,1,11,0.00
2013-9-22,91.7,78.8,73.6,77.0,73.0,67.1,100,85,48,29.87,29.75,33,3,37,1.09
2013-9-23,86.2,76.6,72.5,79.8,75.6,72.4,100,97,68,29.97,29.85,11,1,12,1.55
2013-9-24,84.8,76.7,72.6,80.0,75.7,72.1,100,97,71,29.97,29.84,20,2,21,0.35
2013-9-25,81.9,77.0,72.6,76.5,73.3,69.1,100,89,68,29.87,29.79,12,4,14,0.03
2013-9-26,91.8,80.9,72.2,80.4,72.5,60.2,100,80,37,29.89,29.78,13,5,17,0.02
2013-9-27,81.3,74.5,69.4,74.9,71.6,68.3,100,92,68,29.98,29.86,18,4,18,0.06
2013-9-28,84.5,76.3,70.0,75.5,70.6,65.1,100,84,59,30.02,29.93,15,2,16,0.01
2013-9-29,90.0,77.1,69.2,73.7,68.8,58.0,100,78,35,30.01,29.91,17,2,17,0.00
2013-9-30,90.6,77.4,68.7,75.8,69.5,62.4,100,79,42,30.03,29.92,12,1,12,0.00
2013-10-1,92.5,79.1,71.8,75.6,70.6,66.1,100,77,48,30.08,29.99,12,1,12,0.00
2013-10-2,89.1,78.1,69.3,70.8,68.1,64.7,99,74,48,30.08,30.01,12,2,13,0.00
2013-10-3,93.0,79.3,68.5,73.8,69.2,64.1,100,74,40,30.09,30.00,10,1,10,0.00
2013-10-4,93.2,79.7,70.8,76.6,70.3,62.4,100,77,39,30.10,30.00,10,1,10,0.00
2013-10-5,92.7,79.0,70.5,76.9,71.3,65.2,100,80,45,30.08,29.97,11,1,14,0.08
2013-10-6,92.2,78.7,71.2,77.7,72.5,66.4,100,85,43,30.00,29.87,10,1,15,1.25
2013-10-7,85.4,76.3,71.8,79.6,74.5,69.7,100,95,70,29.89,29.76,23,3,26,0.67
2013-10-8,88.9,78.1,73.2,78.5,74.1,69.1,100,89,57,29.97,29.78,25,4,26,0.04
2013-10-9,80.8,72.8,66.7,73.0,68.9,65.6,98,88,64,30.05,29.94,19,7,19,0.00
2013-10-10,86.8,74.0,64.9,68.2,65.5,59.1,100,78,43,30.07,29.98,12,3,13,0.00
2013-10-11,87.6,75.2,64.2,70.9,64.2,58.0,100,73,39,30.06,29.95,12,1,13,0.00
2013-10-12,87.6,75.6,65.6,71.3,62.9,53.6,100,69,34,30.06,29.97,14,2,14,0.00
2013-10-13,87.4,75.9,65.4,68.0,61.5,53.7,98,64,34,30.10,30.00,13,2,14,0.00
2013-10-14,87.1,74.9,67.8,70.4,66.5,59.4,98,78,43,30.06,29.94,20,5,22,0.00
2013-10-15,82.3,73.2,68.2,73.3,70.4,67.5,100,92,66,30.02,29.90,12,2,12,0.00
2013-10-16,89.3,77.4,69.8,74.2,69.7,61.7,100,81,45,29.99,29.90,10,2,10,0.00
2013-10-17,91.0,78.7,70.0,76.6,69.6,61.2,100,78,39,30.00,29.90,12,1,12,0.00
2013-10-18,93.1,80.3,69.9,76.8,70.1,61.7,100,75,38,30.00,29.90,12,2,13,0.00
2013-10-19,91.8,80.8,71.1,77.0,70.8,63.8,100,75,42,29.97,29.88,13,2,14,0.00
2013-10-20,88.1,78.9,73.8,76.7,73.2,69.3,99,84,57,29.99,29.87,13,2,13,0.00
2013-10-21,92.0,79.5,71.0,78.6,73.4,68.1,100,84,49,30.01,29.90,11,2,11,0.00
2013-10-22,90.3,80.1,73.0,78.2,72.2,65.6,100,80,47,29.96,29.82,21,4,22,0.00
2013-10-23,82.8,74.7,66.2,73.4,62.5,50.0,100,69,37,30.03,29.81,19,4,19,0.03
2013-10-24,72.5,64.7,59.4,59.4,53.7,46.0,92,68,59,30.17,30.03,14,4,16,0.00
2013-10-25,80.5,66.9,54.4,59.6,55.3,47.8,100,71,38,30.24,30.15,14,3,14,0.00
2013-10-26,80.2,64.7,54.2,59.0,55.6,48.0,100,77,35,30.23,30.11,12,2,12,0.00
2013-10-27,80.5,66.0,55.4,59.4,55.3,48.7,100,73,35,30.15,30.06,12,2,12,0.00
2013-10-28,85.7,68.8,56.2,65.8,59.7,54.1,100,77,38,30.21,30.11,12,1,12,0.00
2013-10-29,82.9,71.3,60.7,68.8,64.3,59.2,100,82,48,30.23,30.15,14,3,18,0.00
2013-10-30,86.8,73.2,64.8,71.2,66.1,60.9,100,81,48,30.24,30.12,10,2,10,0.00
2013-10-31,89.3,76.2,65.3,73.4,67.3,60.7,100,77,40,30.15,30.00,16,3,18,0.00
2013-11-1,88.8,78.5,68.5,75.0,68.6,61.1,100,75,42,30.02,29.87,21,4,22,0.00
2013-11-2,75.8,69.5,62.1,75.0,68.6,62.1,100,97,84,29.99,29.82,16,3,23,0.00
2013-11-3,76.6,64.9,56.0,62.5,54.8,44.6,100,73,36,30.13,29.97,18,4,19,0.00
2013-11-4,78.7,68.9,61.6,67.7,61.3,54.4,94,78,48,30.19,30.10,16,3,17,0.00
2013-11-5,82.7,72.8,65.6,70.8,68.0,62.8,100,87,54,30.18,30.10,18,2,21,0.01
2013-11-6,80.8,72.4,67.2,73.1,68.8,64.6,100,90,61,30.14,30.05,11,1,12,0.00
2013-11-7,80.9,72.0,0.0,74.1,68.2,0.0,100,89,63,30.07,26.07,12,2,12,0.00
2013-11-8,78.1,68.0,61.0,68.5,63.2,54.3,100,86,63,30.14,30.00,16,5,20,0.00
2013-11-9,82.0,69.1,59.7,67.7,62.3,59.4,100,81,50,30.19,30.11,14,2,14,0.00
2013-11-10,84.0,70.5,61.4,68.7,64.6,59.8,100,84,47,30.18,30.09,11,2,11,0.00
2013-11-11,83.8,71.2,62.1,68.8,64.9,61.3,100,83,52,30.18,30.08,12,2,12,0.00
2013-11-12,80.5,68.1,62.1,70.5,64.9,60.1,100,91,59,30.13,30.03,11,2,11,0.00
2013-11-13,67.5,60.2,51.3,61.5,51.9,47.9,93,75,59,30.33,30.09,29,8,29,0.00
2013-11-14,76.5,62.0,50.0,59.7,54.6,49.2,100,79,46,30.31,30.19,15,1,15,0.00
2013-11-15,73.8,66.8,59.2,69.5,64.7,58.1,100,94,77,30.21,30.09,12,1,12,0.08
2013-11-16,76.0,70.1,66.4,75.8,70.1,65.9,100,100,100,30.15,30.05,12,1,12,0.06
2013-11-17,88.3,76.3,67.7,76.6,69.9,65.7,100,83,51,30.10,30.00,14,2,16,0.00
2013-11-18,82.7,75.2,68.4,74.0,69.8,66.7,100,85,62,30.05,29.92,9,2,13,0.00
2013-11-19,77.7,70.6,62.8,71.6,64.8,56.6,100,84,54,30.00,29.89,16,3,17,0.00
2013-11-20,80.5,71.3,63.0,73.8,68.5,62.8,100,92,68,30.13,29.98,12,2,12,0.02
2013-11-21,79.8,72.2,68.9,73.9,71.1,68.7,100,97,77,30.21,30.11,8,1,14,0.06
2013-11-22,80.4,72.7,68.7,75.3,69.6,64.9,100,91,64,30.21,30.12,8,1,14,0.05
2013-11-23,86.1,72.9,63.5,72.5,65.7,59.3,100,81,44,30.12,30.01,11,1,11,0.00
2013-11-24,69.8,64.9,60.3,68.4,59.8,52.3,100,84,68,30.26,30.03,25,6,28,0.00
2013-11-25,75.8,68.1,62.8,64.1,57.7,52.4,88,70,52,30.27,30.09,20,2,20,0.00
2013-11-26,83.0,74.6,66.8,74.8,70.3,63.1,100,87,66,30.10,29.75,27,5,28,0.04
2013-11-27,75.6,62.4,41.6,74.4,57.9,37.5,100,86,62,30.22,29.70,29,8,29,0.24
2013-11-28,65.5,49.7,35.4,52.4,44.4,34.0,96,83,59,30.35,30.21,15,5,16,0.00
2013-11-29,71.5,59.0,49.9,60.2,54.3,49.9,100,86,63,30.37,30.28,18,6,19,0.00
2013-11-30,76.9,64.9,56.2,65.6,61.0,54.2,100,89,56,30.32,30.19,18,5,18,0.00
2013-12-1,74.9,65.9,60.5,67.8,64.0,60.5,100,94,70,30.20,29.99,13,3,14,0.00
2013-12-2,74.3,65.1,59.5,65.7,59.1,51.8,100,83,52,29.99,29.83,9,2,11,0.00
2013-12-3,80.1,66.8,54.9,64.5,59.2,54.9,100,79,50,30.01,29.89,11,2,11,0.01
2013-12-4,82.9,70.1,60.6,70.1,64.5,60.4,100,85,50,30.10,29.98,11,2,11,0.00
2013-12-5,85.0,72.9,61.9,72.2,66.1,61.9,100,82,51,30.18,30.09,10,2,10,0.00
2013-12-6,86.5,74.8,65.2,75.6,68.7,64.7,100,84,49,30.19,30.10,13,2,14,0.00
2013-12-7,87.3,74.3,64.4,72.5,66.3,57.4,100,80,40,30.25,30.15,10,1,10,0.00
2013-12-8,86.8,73.9,63.4,76.0,67.0,60.6,100,82,46,30.24,30.11,16,2,17,0.00
2013-12-9,85.8,73.9,64.3,75.7,67.1,62.0,100,82,49,30.20,30.10,16,2,17,0.00
2013-12-10,84.5,73.6,62.6,73.1,65.3,60.3,100,78,46,30.20,30.07,15,4,17,0.01
2013-12-11,84.5,69.2,57.2,68.5,62.3,55.0,97,80,52,30.26,30.15,14,3,14,0.00
2013-12-12,69.8,61.1,51.4,63.6,49.4,31.4,100,70,28,30.33,30.20,20,5,20,0.00
2013-12-13,77.3,60.7,48.6,59.2,52.8,42.6,99,77,48,30.28,30.13,14,2,15,0.00
2013-12-14,83.5,72.6,61.6,71.7,67.0,57.5,96,84,60,30.14,29.94,22,4,24,0.00
2013-12-15,73.4,67.3,57.8,73.1,64.3,56.2,100,90,74,30.13,29.88,21,5,22,0.11
2013-12-16,66.0,54.6,45.6,57.2,48.6,44.7,98,82,51,30.24,30.12,18,3,18,0.00
2013-12-17,73.3,56.3,43.0,54.0,49.2,42.3,99,80,49,30.26,30.16,9,2,9,0.00
2013-12-18,70.5,55.5,42.5,49.7,45.3,40.6,100,73,40,30.29,30.20,18,2,18,0.00
2013-12-19,78.7,59.8,43.2,59.7,52.0,41.8,99,79,43,30.29,30.18,9,1,10,0.00
2013-12-20,84.7,67.5,52.3,67.8,58.8,52.1,100,78,44,30.22,30.11,13,2,13,0.00
2013-12-21,86.8,74.5,64.5,74.5,69.0,63.5,100,85,51,30.16,30.04,19,4,22,0.01
2013-12-22,85.8,75.4,67.4,75.8,69.4,65.2,100,84,55,30.16,30.08,22,3,22,0.00
2013-12-23,87.2,76.3,68.5,77.1,69.6,62.5,100,82,48,30.18,30.08,18,4,19,0.00
2013-12-24,73.8,63.2,48.9,73.8,54.1,32.4,100,76,33,30.27,30.10,21,6,21,0.09
2013-12-25,78.1,58.8,45.8,59.0,50.0,38.5,100,75,44,30.26,30.15,12,3,12,0.00
2013-12-26,76.8,63.1,55.9,63.5,59.6,55.7,100,90,60,30.23,30.10,16,3,16,0.00
2013-12-27,70.2,63.9,57.9,66.8,63.1,57.9,100,97,87,30.27,30.17,16,4,16,0.00
2013-12-28,76.8,70.4,64.3,74.5,69.6,64.2,100,98,83,30.23,30.02,18,2,19,0.05
2013-12-29,79.1,72.1,64.8,76.5,71.6,64.0,100,98,78,30.03,29.89,18,4,19,0.45
2013-12-30,71.0,62.2,57.6,65.3,57.9,49.3,100,87,56,30.21,30.00,9,2,10,0.00
2013-12-31,71.0,61.8,56.2,57.3,52.7,46.9,98,74,46,30.31,30.17,14,3,14,0.00
2014-1-1,64.4,60.6,56.9,64.4,60.0,55.9,100,98,91,30.26,30.07,14,3,15,0.06
2014-1-2,81.6,68.0,58.1,75.5,67.1,55.2,100,97,70,30.07,29.82,33,4,35,0.41